Regional Weather Roundup
Issued by NWS

Home | Current Version | Previous Version | Text Only | Print | Product List | Glossary On
Versions: 1 2 3 4 5 6 7 8 9 10 11 12 13 14 15 16 17 18 19 20 21 22 23 24 25 26 27 28 29 30 31 32 33 34 35 36 37 38 39 40 41 42 43 44 45 46 47 48 49 50
000
ASUS45 KABQ 162010
RWRNM
WEATHER ROUNDUP FOR NEW MEXICO
NATIONAL WEATHER SERVICE ALBUQUERQUE NM
200 PM MDT WED APR 16 2014

NOTE: "FAIR" MEANS FEW OR NO CLOUDS BELOW 12,000 FEET AGL WITH NO
       SIGNIFICANT WEATHER OR OBSTRUCTIONS TO VISION.

      THIS PRODUCT IS RELEASED AS TWO VERSIONS.  ONE VERSION NEAR
      THE TOP OF THE HOUR CONTAINING PRELIMINARY DATA FROM ALBUQUERQUE
      AND OTHER STATIONS.  A FINAL VERSION WITH ADDITIONAL DATA IS
      ISSUED ABOUT 10 MINUTES AFTER THE HOUR.

NMZ501-503-504-510>518-162100-
NORTHWEST PLATEAU/NORTHCENTRAL MOUNTAINS

CITY           SKY/WX    TMP DP  RH WIND       PRES   REMARKS
FARMINGTON     SUNNY     64  13  13 W17       29.86F
LOS ALAMOS     PTSUNNY   62   8  11 W16G22    29.90F
SANTA FE       PTSUNNY   67   7   9 SW16G28   29.86F
TAOS           MOSUNNY   64  12  13 SW16G22   29.88F
ANGEL FIRE     FAIR      57  11  16 W13G28    29.94S

$$
NMZ402-403-502-505>509-162100-
WESTCENTRAL MOUNTAINS/SOUTHWEST MOUNTAINS

CITY           SKY/WX    TMP DP  RH WIND       PRES   REMARKS
GALLUP         PTSUNNY   66   7  10 SW7G25    29.92F
GRANTS         PTSUNNY   66   6   9 W12G22    29.91F
SILVER CITY    SUNNY     75  -2   5 NW17G30   29.91F

$$
NMZ407-409-411-412-162100-
SOUTHERN DESERTS

CITY           SKY/WX    TMP DP  RH WIND       PRES   REMARKS
LORDSBURG      FAIR      77   5   6 NW12G18   29.86F
DEMING         SUNNY     80   0   4 W18G29    29.83F
LAS CRUCES     SUNNY     78   6   6 W16       29.85F
HOLLOMAN AFB   MOSUNNY   76   8   7 VRB7      29.82F
ALAMOGORDO       N/A    N/A N/A N/A MISG        N/A
T OR C         SUNNY     76  -2   4 S10       29.81F

$$
NMZ519>523-162100-
CENTRAL VALLEYS/CENTRAL HIGHLANDS

CITY           SKY/WX    TMP DP  RH WIND       PRES   REMARKS
ALBUQUERQUE    PTSUNNY   70   6   8 VRB5      29.85F
DOUBLE EAGLE   PTSUNNY   68   7   9 NW10      29.87F
MORIARTY ARPT  FAIR      68   6   8 W20G25    29.88F
CLINES CORNERS SUNNY     66   6   9 W21G29    29.89S
BELEN          FAIR      75  10   8 W10       29.82F
SOCORRO        FAIR      77   8   7 SE14      29.82F

$$
NMZ524>526-539-540-162100-
SOUTHCENTRAL MOUNTAINS

CITY           SKY/WX    TMP DP  RH WIND       PRES   REMARKS
RUIDOSO        SUNNY     66   0   7 NW3G20    29.94F

$$
NMZ527>531-162100-
NORTHEAST HIGHLANDS/NORTHEAST PLAINS

CITY           SKY/WX    TMP DP  RH WIND       PRES   REMARKS
LAS VEGAS      MOSUNNY   67   6   9 VRB5      29.84F
RATON          CLOUDY    63  19  18 SE18      29.83S
CLAYTON        CLOUDY    63  25  23 E21G30    29.88S

$$
NMZ532>537-162100-
EASTCENTRAL PLAINS

CITY           SKY/WX    TMP DP  RH WIND       PRES   REMARKS
TUCUMCARI      SUNNY     77  18  11 NE20G33   29.75S
CANNON AFB     SUNNY     78   2   5 W10G20    29.79F
CLOVIS AIRPORT SUNNY     79  19  11 W16G24    29.81F

$$
NMZ028-029-538-162100-
SOUTHEAST PLAINS

CITY           SKY/WX    TMP DP  RH WIND       PRES   REMARKS
ROSWELL        SUNNY     81   8   6 SE13G18   29.77F
ARTESIA        SUNNY     81  18   9 S13G20    29.76F
CARLSBAD       SUNNY     85  12   6 E6        29.76F
HOBBS          SUNNY     77  14   9 S9        29.82F


$$



USA.gov is the U.S. government's official web portal to all federal, state and local government web resources and services.